Simultaneous Nadir Overpasses (SNOs) Predictions

Prediction of SNOs between GOES-16 and NOAA-19 Satellite Orbit:

Table of predicted SNOs for the next 14.0 days since TLE Epoch: 1/31/2020
Index Date Time (GOES-16) GOES-16 Lat,Lon NOAA-19 Lat,Lon Distance(km) Time Diff (sec)
1 01/31/2020 22:45:09 -0.05, -75.20 -0.76, -78.40 364.79 80
2 02/01/2020 22:33:29 -0.05, -75.20 -0.15, -75.54 39.55 80
3 02/02/2020 22:24:29 -0.05, -75.20 0.52, -72.69 285.92 80
4 02/05/2020 10:42:43 0.05, -75.21 0.61, -77.64 276.55 80
5 02/06/2020 10:33:44 0.06, -75.22 -0.06, -74.79 49.05 80
6 02/07/2020 10:22:04 0.06, -75.22 -0.73, -71.94 374.67 80
7 02/09/2020 22:40:36 -0.06, -75.22 -0.48, -76.95 197.58 80
8 02/10/2020 22:31:36 -0.07, -75.23 0.20, -74.10 128.57 80
9 02/11/2020 22:19:57 -0.07, -75.24 0.88, -71.26 454.88 80
10 02/13/2020 10:49:50 0.06, -75.26 0.95, -79.04 431.74 80
11 02/14/2020 10:38:11 0.07, -75.28 0.27, -76.20 105.16 80




NCC Satellite Simultaneous Nadir Overpasses (SNOs) Prediction Service
